Location: Sternwarte Zollern-Alb
(48.2880°N, 8.6780°E)
Time: 03:22:34
(UTC+02:00)

ISS - Pass Details

Date: 24 April 2026
Orbit: 414 x 424 km, 51.6° (Epoch: 19 May)

Event Time Altitude Azimuth Distance (km) Brightness Sun altitude
Exits shadow 05:31:13 10° 256° (WSW) 1,486 -1.6 -8.0°
Maximum altitude 05:34:33 73° 341° (NNW) 443 -3.6 -7.5°
Drops below altitude 10° 05:37:56 10° 67° (ENE) 1,507 0.8 -7.0°
Sets 05:40:03 0° 69° (ENE) 2,376 2.5 -6.7°
